Location: Unspecified
(0.0000°N, 0.0000°E)
Time: 00:00:50
(UTC+00:00)

LightSail 2 - Visible Passes

Search period start: 16 September 2019 00:00
Search period end: 26 September 2019 00:00
Orbit: 699 x 733 km, 24.0° (Epoch: 15 September)

Date Brightness Start Highest point End Pass type
(mag) Time Alt. Az. Time Alt. Az. Time Alt. Az.
16 Sep 5.8 04:12:15 41° N 04:12:15 41° N 04:16:27 10° NE visible
17 Sep 7.8 03:18:50 13° NE 03:18:50 13° NE 03:19:27 10° NE visible
17 Sep 6.9 04:57:52 14° NW 05:00:08 18° NNW 05:03:33 10° NNE visible
18 Sep 6.9 04:04:24 21° N 04:04:24 21° N 04:06:56 10° NNE visible
19 Sep 7.3 04:50:33 10° NNW 04:51:32 10° NNW 04:52:32 10° N visible
20 Sep 7.6 03:56:22 11° N 03:56:22 11° N 03:56:51 10° NNE visible
